{"data":{"norad_id":53909,"intl_designator":"2022-119Z","name":"STARLINK-4796","alt_names":[],"object_type":"PAYLOAD","status":"ACTIVE","operator":null,"country":"US","launch_date":"2022-09-24","launch_site_code":"AFETR","launch_vehicle":null,"mission":null,"orbit_class":"UNKNOWN","rcs_meters":null,"size_class":null,"mass_kg":null,"dimensions":null,"purposes":["comms"],"wikipedia_slug":null,"has_3d_model":false,"image_url":null,"decayed_at":null,"tle_current":{"epoch":"2026-09-20T23:32:48.118272Z","epoch_age_seconds":44972,"freshness":"FRESH","line1":"1 53909U 22119Z   26263.98111248  .00000662  00000+0  30734-4 0  9998","line2":"2 53909  53.1619 153.5447 0001239  88.4018 271.7126 15.34393663221358","mean_motion":15.34393663,"eccentricity":0.0001239,"inclination_deg":53.1619,"raan_deg":153.5447,"arg_perigee_deg":88.4018,"mean_anomaly_deg":271.7126,"bstar":3.0734e-5,"rev_number":22135,"period_min":93.848145669773,"perigee_km":461.87449273198,"apogee_km":463.5696576108,"semimajor_km":6840.8590751714,"source":"CELESTRAK","updated_at":"2026-09-21T09:00:33.032678Z"}}}